[[{"header":{"parameterUnit":"m.s-1","parameterCategory":1,"la1":30.2991,"la2":30.254,"lo1":-89.0895,"lo2":-89.0444,"dy":0.0017,"dx":0.0017,"nx":28,"ny":28,"refTime":"2024-08-06T09:00:00:Z","depth":0,"parameterNumber":2,"parameterNumberName":"U-component_of_WINDS"},"data":[0,0,0,0,0,0,0,0,0,0,0,0,0,0,0,0,0,0,0,0,0,0,0,0,0,0,0,0,0,0,0,0,0,0,0,0,0,0,0,0,0,0,0,0,0,0,0,0,0,0,0,0,0,0,0,0,0,0,3.3821,3.3822,0,3.3904,3.3905,3.3906,3.3823,3.382,3.3817,3.3814,3.3905,3.391,3.3916,0,0,0,0,0,0,0,0,0,0,0,0,0,3.3597,3.3601,3.3821,3.3822,3.3823,3.3904,3.3905,3.3907,3.3824,3.382,3.3816,3.3812,3.3903,3.391,3.3916,0,0,0,0,0,0,0,0,0,0,0,0,0,3.3689,3.3603,3.3821,3.3792,3.379,3.3904,3.3906,3.3907,3.3825,3.382,3.3815,3.381,3.3901,3.3909,3.3917,3.4066,0,0,3.3942,3.3946,0,0,0,0,0,0,0,0,3.3684,3.3697,3.3795,3.3794,3.3792,3.3848,3.386,3.3961,3.3826,3.3812,3.3814,3.3808,3.3891,3.3899,3.3926,3.407,3.4074,3.3943,3.3948,3.3951,3.3954,0,0,0,0,0,0,0,3.3678,3.3693,3.3854,3.3796,3.3795,3.3776,3.3784,3.3878,3.3878,3.3813,3.3807,3.3817,3.3889,3.3918,3.3927,3.4076,3.3943,3.395,3.3955,3.3958,3.4349,3.4355,0,0,0,0,0,0,3.3674,3.3688,3.3852,3.3857,3.3724,3.3784,3.3793,3.3835,3.3877,3.3878,3.3822,3.3813,3.3906,3.3918,3.393,3.4109,3.3951,3.3959,3.3964,3.4344,3.4351,3.4356,0,0,0,0,0,0,3.3669,3.3689,3.3848,3.3771,3.379,3.3793,3.3842,3.384,3.3869,3.3883,3.3883,3.3851,3.3903,3.3919,3.4033,3.4111,3.3963,3.397,3.4338,3.4346,3.4354,3.4468,0,0,0,0,0,0,3.3663,3.3688,3.3743,3.3773,3.3794,3.3948,3.3847,3.3845,3.3882,3.3872,3.3911,3.3913,3.39,3.4021,3.4041,3.412,3.3977,3.4331,3.4341,3.4351,3.4457,3.4479,3.4497,0,0,0,0,0,3.3655,3.3772,3.3746,3.3766,3.3863,3.3953,3.3965,3.3947,3.3889,3.3946,3.3955,3.3912,3.4099,3.4034,3.4056,3.4138,3.4326,3.4338,3.435,3.4448,3.4474,3.4497,0,0,0,0,0,0,3.3753,3.3776,3.3747,3.3877,3.3913,3.3938,3.4009,3.3975,3.403,3.4019,3.3995,3.4005,3.4127,3.4143,3.407,3.4285,3.4203,3.4221,3.427,3.4295,3.4315,3.431,3.3983,0,0,0,0,0,3.379,3.3859,3.3875,3.3989,3.4008,3.4006,3.4044,3.4027,3.4065,3.408,3.4098,3.4138,3.4206,3.4251,3.4314,3.4458,3.4467,3.4526,3.4546,3.4563,3.4579,3.4658,3.4685,3.4397,3.4397,3.4396,0,0,3.3867,3.3887,3.3933,3.4009,3.4035,3.411,3.402,3.4101,3.4157,3.4093,3.4202,3.4217,3.426,3.4391,3.4449,3.4408,3.466,3.4578,3.4591,3.4598,3.4674,3.4701,3.4725,3.4405,3.4404,3.4402,0,0,3.4045,3.4066,3.4164,3.4192,3.4232,3.423,3.4253,3.4284,3.4291,3.44,3.4354,3.442,3.4537,3.4571,3.4603,3.4795,3.4758,3.4816,3.4922,3.5,3.5023,3.5043,3.5114,3.5139,3.4831,3.4832,3.4832,0,3.4136,3.4243,3.4219,3.4304,3.4341,3.4284,3.4384,3.4413,3.4473,3.4501,3.4454,3.46,3.4625,3.4764,3.4811,3.4838,3.4866,3.4812,3.5021,3.5041,3.506,3.5127,3.5154,3.4839,3.4838,3.4837,3.4837,0,3.4354,3.443,3.4505,3.4562,3.4607,3.4699,3.4691,3.4739,3.4718,3.4722,3.4835,3.4862,3.4931,3.4962,3.4943,3.5099,3.5073,3.5024,3.4942,3.5095,3.5158,3.5183,3.4849,3.4846,3.4844,3.4842,0,0,3.4597,3.464,3.4668,3.4694,3.4735,3.4794,3.4886,3.4951,3.4994,3.5037,3.5115,3.5216,3.5171,3.5208,3.5192,3.526,3.5413,3.5203,3.5204,3.5243,3.559,3.5628,3.5658,3.5388,3.5393,3.5397,3.5587,0,3.4778,3.4934,3.4915,3.5065,3.5137,3.5085,3.5164,3.5199,3.5205,3.5268,3.5275,3.5348,3.5282,3.5305,3.537,3.5381,3.5483,3.5367,3.5463,3.5467,3.5456,3.569,3.573,3.5909,3.5611,3.5615,3.5618,0,3.501,3.506,3.5218,3.5248,3.5278,3.5349,3.5409,3.5469,3.5508,3.5508,3.555,3.5522,3.5616,3.553,3.5661,3.5583,3.5621,3.5633,3.5639,3.5649,3.5553,3.5709,3.5965,3.5993,3.5657,3.5653,3.5651,0,3.5174,3.5281,3.539,3.5413,3.5452,3.5504,3.5523,3.5557,3.5598,3.5651,3.5678,3.5741,3.5777,3.5828,3.5819,3.5757,3.5954,3.5867,3.5959,3.5959,3.6004,3.6002,3.6272,3.6026,3.6025,3.6025,3.6024,0,3.5379,3.5478,3.5464,3.5531,3.5641,3.5619,3.5729,3.5742,3.5773,3.5843,3.5802,3.587,3.5853,3.5921,3.5914,3.6025,3.6041,3.6046,3.6043,3.605,3.605,3.6077,3.6065,3.6032,3.603,3.6029,3.6027,0,3.5582,3.5576,3.5691,3.5718,3.5727,3.5807,3.5831,3.5895,3.5897,3.5987,3.6007,3.6012,3.609,3.6085,3.6173,3.6169,3.6307,3.6289,3.6293,3.629,3.6383,3.6376,3.6682,3.6722,3.6447,3.645,3.6452,0,3.5714,3.5789,3.5823,3.5866,3.5888,3.5958,3.6,3.5982,3.6027,3.6079,3.6138,3.6211,3.6269,3.6395,3.6408,3.6476,3.6461,3.6564,3.6471,3.6477,3.6466,3.6462,3.6471,3.6583,3.6586,3.6588,3.659,0,3.595,3.5944,3.6004,3.6065,3.6115,3.6162,3.6205,3.6243,3.623,3.6283,3.6361,3.6406,3.6495,3.657,3.6635,3.6656,3.6623,3.6619,3.6644,3.6654,3.6654,3.6657,3.6345,3.6612,3.661,3.6609,3.6607,3.6606,3.6123,3.6188,3.6222,3.6292,3.6322,3.6363,3.6425,3.6435,3.6499,3.6569,3.6555,3.6643,3.6683,3.6766,3.6794,3.6864,3.6828,3.6864,3.6874,3.6884,3.6895,3.6641,3.6876,3.6875,3.6875,3.6874,3.6874,0,3.6359,3.6379,3.6442,3.6503,3.6559,3.6519,3.6565,3.6615,3.6692,3.6731,3.6788,3.6879,3.6951,3.697,3.704,3.7093,3.7079,3.7112,3.7109,3.7115,3.6923,3.6895,3.7122,3.7122,3.7122,3.7122,3.7122,3.7122,3.6489,3.6596,3.6594,3.6718,3.6737,3.6822,3.6852,3.689,3.6921,3.7024,3.7083,3.7094,3.7125,3.7197,3.7263,3.7266,3.7295,3.7335,3.7333,3.7153,3.7129,3.7105,3.7079,3.7341,3.7341,3.752,3.7522,3.7523]},{"header":{"parameterUnit":"m.s-1","parameterCategory":1,"la1":30.2991,"la2":30.254,"lo1":-89.0895,"lo2":-89.0444,"dy":0.0017,"dx":0.0017,"nx":28,"ny":28,"refTime":"2024-08-06T09:00:00:Z","depth":0,"parameterNumber":3,"parameterNumberName":"V-component_of_WINDS"},"data":[0,0,0,0,0,0,0,0,0,0,0,0,0,0,0,0,0,0,0,0,0,0,0,0,0,0,0,0,0,0,0,0,0,0,0,0,0,0,0,0,0,0,0,0,0,0,0,0,0,0,0,0,0,0,0,0,0,0,-0.2029,-0.2029,0,-0.2026,-0.2026,-0.2026,-0.2042,-0.2042,-0.2043,-0.2043,-0.204,-0.2039,-0.2038,0,0,0,0,0,0,0,0,0,0,0,0,0,-0.2048,-0.2047,-0.2029,-0.2029,-0.2029,-0.2026,-0.2026,-0.2026,-0.2042,-0.2042,-0.2043,-0.2043,-0.204,-0.2039,-0.2038,0,0,0,0,0,0,0,0,0,0,0,0,0,-0.2042,-0.2047,-0.2029,-0.2036,-0.2037,-0.2026,-0.2026,-0.2026,-0.2042,-0.2042,-0.2043,-0.2044,-0.204,-0.2039,-0.2038,-0.2019,0,0,-0.2036,-0.2036,0,0,0,0,0,0,0,0,-0.2042,-0.2041,-0.2035,-0.2036,-0.2036,-0.2035,-0.2031,-0.2023,-0.2041,-0.204,-0.2043,-0.2044,-0.2037,-0.2037,-0.2035,-0.2019,-0.2019,-0.2036,-0.2035,-0.2035,-0.2035,0,0,0,0,0,0,0,-0.2042,-0.2041,-0.2027,-0.2035,-0.2036,-0.204,-0.204,-0.203,-0.2035,-0.204,-0.2041,-0.2041,-0.2038,-0.2035,-0.2035,-0.2019,-0.2036,-0.2035,-0.2035,-0.2034,-0.1988,-0.1987,0,0,0,0,0,0,-0.2042,-0.2041,-0.2028,-0.2027,-0.2041,-0.2039,-0.2039,-0.2035,-0.2035,-0.2036,-0.204,-0.2041,-0.2036,-0.2036,-0.2035,-0.2012,-0.2035,-0.2034,-0.2034,-0.1989,-0.1988,-0.1987,0,0,0,0,0,0,-0.2042,-0.2041,-0.2028,-0.2035,-0.2033,-0.2038,-0.2033,-0.2034,-0.2032,-0.2035,-0.2036,-0.2037,-0.2037,-0.2036,-0.2023,-0.2012,-0.2034,-0.2033,-0.199,-0.1988,-0.1987,-0.1968,0,0,0,0,0,0,-0.2043,-0.2041,-0.2033,-0.2034,-0.2033,-0.2016,-0.2032,-0.2034,-0.203,-0.2032,-0.2032,-0.2033,-0.2037,-0.2024,-0.2022,-0.2012,-0.2033,-0.1991,-0.1989,-0.1988,-0.1969,-0.1966,-0.1963,0,0,0,0,0,-0.2043,-0.2028,-0.2033,-0.2031,-0.2024,-0.2016,-0.2015,-0.2021,-0.203,-0.2022,-0.2024,-0.2033,-0.2014,-0.2023,-0.2021,-0.201,-0.1991,-0.1989,-0.1988,-0.1971,-0.1967,-0.1963,0,0,0,0,0,0,-0.2025,-0.2028,-0.2034,-0.2018,-0.2016,-0.2018,-0.2009,-0.2016,-0.2012,-0.2014,-0.2021,-0.2021,-0.2007,-0.2007,-0.2017,-0.1992,-0.2004,-0.2002,-0.1992,-0.1988,-0.1985,-0.1985,-0.2032,0,0,0,0,0,-0.2019,-0.2012,-0.2015,-0.2001,-0.2,-0.2005,-0.2001,-0.2006,-0.2005,-0.2004,-0.2005,-0.2003,-0.1997,-0.1993,-0.1987,-0.197,-0.197,-0.1961,-0.1958,-0.1956,-0.1953,-0.1944,-0.194,-0.1981,-0.1981,-0.1981,0,0,-0.2007,-0.2008,-0.2003,-0.1997,-0.1997,-0.1989,-0.2004,-0.1995,-0.199,-0.2003,-0.1991,-0.1991,-0.199,-0.1975,-0.1968,-0.1974,-0.1942,-0.1953,-0.1951,-0.1951,-0.1942,-0.1938,-0.1934,-0.198,-0.198,-0.1981,0,0,-0.1981,-0.1981,-0.1969,-0.1968,-0.1967,-0.197,-0.1968,-0.1968,-0.1969,-0.1958,-0.1967,-0.1961,-0.195,-0.1948,-0.1946,-0.192,-0.1927,-0.1918,-0.1902,-0.1892,-0.1889,-0.1886,-0.1877,-0.1873,-0.1916,-0.1916,-0.1916,0,-0.1966,-0.1954,-0.1962,-0.1953,-0.195,-0.1962,-0.195,-0.1948,-0.1945,-0.1943,-0.1951,-0.1937,-0.1937,-0.1922,-0.1915,-0.1913,-0.191,-0.1917,-0.1889,-0.1886,-0.1884,-0.1875,-0.1871,-0.1915,-0.1915,-0.1915,-0.1915,0,-0.1936,-0.1928,-0.1919,-0.1916,-0.1912,-0.1901,-0.1907,-0.1902,-0.1908,-0.191,-0.1898,-0.1899,-0.1893,-0.189,-0.1895,-0.1875,-0.1879,-0.1888,-0.1901,-0.1879,-0.187,-0.1867,-0.1913,-0.1913,-0.1914,-0.1914,0,0,-0.1897,-0.1899,-0.1895,-0.1894,-0.1894,-0.1888,-0.1878,-0.1873,-0.1869,-0.1867,-0.1858,-0.1849,-0.1857,-0.1854,-0.1859,-0.1851,-0.183,-0.1861,-0.1861,-0.1855,-0.1808,-0.1801,-0.1797,-0.1835,-0.1835,-0.1834,-0.1808,0,-0.1871,-0.1854,-0.1861,-0.1843,-0.1836,-0.1847,-0.1839,-0.1837,-0.184,-0.1834,-0.1837,-0.183,-0.1841,-0.1839,-0.1832,-0.1834,-0.1821,-0.1836,-0.1827,-0.1827,-0.1827,-0.1793,-0.1786,-0.1761,-0.1805,-0.1804,-0.1804,0,-0.1838,-0.1835,-0.1816,-0.1818,-0.1815,-0.1807,-0.1803,-0.1797,-0.1797,-0.1799,-0.1796,-0.1803,-0.1793,-0.1807,-0.1793,-0.1804,-0.18,-0.1801,-0.18,-0.1799,-0.1814,-0.179,-0.1753,-0.1749,-0.1799,-0.1799,-0.18,0,-0.1811,-0.1802,-0.179,-0.1789,-0.179,-0.1784,-0.1784,-0.1784,-0.1781,-0.1778,-0.1775,-0.1771,-0.1768,-0.1765,-0.177,-0.1779,-0.1756,-0.177,-0.1757,-0.1757,-0.1751,-0.1751,-0.1712,-0.175,-0.175,-0.175,-0.175,0,-0.1781,-0.1769,-0.1778,-0.177,-0.1757,-0.1765,-0.1752,-0.1754,-0.1754,-0.1747,-0.1757,-0.175,-0.1758,-0.1752,-0.1756,-0.1744,-0.1743,-0.1744,-0.1745,-0.1743,-0.1743,-0.174,-0.1742,-0.1749,-0.1749,-0.1749,-0.175,0,-0.1748,-0.1754,-0.1741,-0.1744,-0.1744,-0.1734,-0.1737,-0.173,-0.1733,-0.1724,-0.1722,-0.1727,-0.172,-0.1726,-0.1719,-0.1722,-0.1706,-0.171,-0.1706,-0.1707,-0.1694,-0.1695,-0.1652,-0.1647,-0.1688,-0.1688,-0.1688,0,-0.1728,-0.1719,-0.1721,-0.1717,-0.1717,-0.171,-0.1707,-0.1715,-0.1711,-0.171,-0.1703,-0.1697,-0.1693,-0.1682,-0.1685,-0.168,-0.1683,-0.1668,-0.1682,-0.168,-0.1682,-0.1683,-0.1682,-0.1665,-0.1665,-0.1664,-0.1664,0,-0.1692,-0.1695,-0.169,-0.1686,-0.1682,-0.168,-0.1677,-0.1674,-0.1682,-0.1677,-0.167,-0.1667,-0.166,-0.1654,-0.1651,-0.1651,-0.1658,-0.166,-0.1657,-0.1654,-0.1652,-0.1652,-0.1698,-0.1661,-0.1661,-0.1661,-0.1661,-0.1661,-0.1665,-0.1658,-0.1658,-0.1652,-0.1651,-0.1649,-0.1643,-0.1646,-0.164,-0.1636,-0.1641,-0.1633,-0.1632,-0.1628,-0.1627,-0.1621,-0.1627,-0.1622,-0.1621,-0.162,-0.1618,-0.1653,-0.162,-0.162,-0.162,-0.1621,-0.1621,0,-0.1629,-0.163,-0.1624,-0.1621,-0.1617,-0.1625,-0.1623,-0.1619,-0.1612,-0.1611,-0.1606,-0.1599,-0.1593,-0.1596,-0.1591,-0.1586,-0.1589,-0.1584,-0.1584,-0.1584,-0.1613,-0.1616,-0.1581,-0.1581,-0.1581,-0.1581,-0.1581,-0.1581,-0.1609,-0.1597,-0.1601,-0.1589,-0.159,-0.1582,-0.158,-0.1578,-0.1578,-0.1569,-0.1564,-0.1566,-0.1567,-0.1562,-0.1558,-0.1559,-0.1556,-0.155,-0.1552,-0.1578,-0.1582,-0.1586,-0.1589,-0.1549,-0.1549,-0.1524,-0.1523,-0.1523]}]]